EHI
0 0 0 0 0 0 0 0 0 0 0 1 3 7 16 27 36 45 51 51 48 41 33 30 34 39 40 40 40 36 34 34 32 31 29 23 14 7 4 4 5 6 4 4
0 0 0 0 0 0 0 0 0 0 0 0 2 5 11 20 31 39 44 46 44 38 31 29 30 33 35 36 35 31 28 26 25 24 23 17 11 7 4 3 3 3 2 2
0 0 0 0 0 0 0 0 0 0 0 0 0 2 5 13 23 32 37 39 37 31 25 24 24 24 26 28 28 25 20 17 16 16 17 15 13 10 6 4 2 1 1 1
0 0 0 0 0 0 0 0 0 0 0 0 0 0 3 9 17 24 27 28 25 20 17 17 17 16 17 19 19 17 14 12 12 13 15 16 16 13 9 5 3 3 3 2
0 0 0 0 0 0 0 0 0 0 0 0 0 0 2 6 11 14 14 12 10 9 9 9 9 8 9 11 10 9 8 8 8 10 12 12 12 11 9 5 4 3 3 2
0 0 0 0 0 0 0 0 0 0 0 0 0 0 1 3 5 5 4 3 2 2 2 2 2 2 3 4 4 4 5 4 4 4 5 5 6 6 5 4 3 2 1 1
0 0 0 0 0 0 0 0 0 0 0 0 0 0 0 1 1 1 2 2 1 0 0 0 0 0 1 1 1 2 2 1 1 1 2 3 3 3 3 2 1 1 0 0
0 0 0 0 0 0 0 0 0 0 0 0 0 0 0 0 0 0 1 2 2 1 0 0 0 0 0 0 0 1 1 0 0 1 1 1 1 2 2 1 0 0 0 0
0 0 0 0 0 0 0 0 0 0 0 0 0 0 0 0 0 0 0 1 2 1 0 0 0 0 0 0 0 0 0 0 0 1 1 0 0 1 1 0 0 0 0 0
0 0 0 0 0 0 0 0 0 0 0 0 0 0 0 0 0 0 0 1 1 0 0 0 0 0 0 0 0 0 0 0 0 0 0 0 0 0 0 0 0 0 0 0
0 0 0 0 0 0 0 0 0 0 0 0 0 0 0 0 0 0 0 0 0 0 0 0 0 0 0 0 0 0 0 0 0 0 0 0 0 0 0 0 0 0 0 0
0 0 0 0 0 0 0 0 0 0 0 0 0 0 0 0 0 0 0 0 0 0 0 0 0 0 0 0 0 0 0 0 0 0 0 0 0 0 0 0 0 0 0 0
0 0 0 0 0 0 0 0 0 0 0 0 0 0 0 0 0 0 0 0 0 0 0 0 0 0 0 0 0 0 0 0 0 0 0 0 0 0 0 0 0 0 0 0
0 0 0 0 0 0 0 0 0 0 0 0 0 0 0 0 0 0 0 0 0 0 0 0 0 0 0 0 0 0 0 0 0 0 0 0 0 0 0 0 0 0 0 0
0 0 0 0 0 0 0 0 0 0 0 0 0 0 0 0 0 0 0 0 0 0 0 0 0 0 0 0 0 0 0 0 0 0 0 0 0 0 0 0 0 0 0 0
0 0 0 0 0 0 0 0 0 0 0 0 0 0 0 0 0 0 0 0 0 0 0 0 0 0 0 0 0 0 0 0 0 0 0 0 0 0 0 0 0 0 0 0
0 0 0 0 0 0 0 0 0 0 0 0 0 0 0 0 0 0 0 0 0 0 0 0 0 0 0 0 0 0 0 0 0 0 0 0 0 0 0 0 0 0 0 0
0 0 0 0 0 0 0 0 0 0 0 0 0 0 0 0 0 0 0 0 0 0 0 0 0 0 0 0 0 0 0 0 0 0 0 0 0 0 0 0 0 0 0 0
0 0 0 0 0 0 0 0 0 0 0 0 0 0 0 0 0 0 0 0 0 0 0 0 0 0 0 0 0 0 0 0 0 0 0 0 0 0 0 0 0 0 0 0
0 0 0 0 0 0 0 0 0 0 0 0 0 0 0 0 0 0 0 0 0 0 0 0 0 0 0 0 0 0 0 0 0 0 0 0 0 0 0 0 0 0 0 0
0 0 0 0 0 0 0 0 0 0 0 0 0 0 0 0 0 0 0 0 0 0 0 0 0 0 0 0 0 0 0 0 0 0 0 0 0 0 0 0 0 0 0 0
0 0 0 0 0 0 0 0 0 0 0 0 0 0 0 0 0 0 0 0 0 0 0 0 0 0 0 0 0 0 0 0 0 0 0 0 0 0 0 0 0 0 0 0
0 0 0 0 0 0 0 0 0 0 0 0 0 0 0 0 0 0 0 0 0 0 0 0 0 0 0 0 0 0 0 0 0 0 0 0 0 0 0 0 0 0 0 0
0 0 0 0 0 0 0 0 0 0 0 0 0 0 0 0 0 0 0 0 0 0 0 0 0 0 0 0 0 0 0 0 0 0 0 0 0 0 0 0 0 0 0 0
0 0 0 0 0 0 0 0 0 0 0 0 0 0 0 0 0 0 0 0 0 0 0 0 0 0 0 0 0 0 0 0 0 0 0 0 0 0 0 0 0 0 0 0
0 0 0 0 0 0 0 0 0 0 0 0 0 0 0 0 0 0 0 0 0 0 0 0 0 0 0 0 0 0 0 0 0 0 0 0 0 0 0 0 0 0 0 0
Wind_Speed
2 2 5 9 9 9 7 5 6 6 6 5 6 6 6 7 9 9 9 8 9 9 6 6 8 8 9 7 5 6 4 1 1 1 2 2 1 1 1 2 4 5 5 4
3 5 13 10 6 4 3 3 4 6 6 5 7 9 9 11 11 8 7 7 8 8 7 7 8 8 8 8 5 3 4 3 2 2 2 2 2 2 2 1 3 4 5 5
6 7 6 4 4 3 3 1 3 4 6 7 6 7 8 8 11 11 10 8 6 7 8 8 8 8 8 6 5 3 2 1 0 1 1 1 2 2 1 0 1 2 3 4
2 3 5 5 4 1 3 3 2 3 4 4 4 1 4 5 10 12 11 10 9 8 8 8 10 10 9 7 6 5 4 4 4 4 3 3 2 0 1 1 2 2 2 2
4 4 5 4 4 2 3 2 3 2 1 2 4 3 3 4 7 8 8 9 8 8 8 8 9 8 8 8 7 6 6 6 6 5 4 4 3 1 1 1 1 2 2 2
3 3 2 3 4 2 2 5 6 6 5 3 2 2 2 3 1 4 6 7 6 6 5 5 5 5 6 6 6 6 6 5 5 5 5 5 4 3 3 3 3 2 2 2
5 7 5 2 4 6 6 6 6 7 6 4 1 4 2 1 4 5 5 4 3 3 2 2 3 3 3 4 3 4 4 4 3 4 4 3 3 2 2 2 2 3 2 2
1 5 5 3 1 3 2 6 6 3 4 4 2 1 1 1 3 5 4 3 2 0 1 1 1 1 2 2 2 2 2 2 2 2 2 2 2 1 1 2 2 2 2 3
2 4 5 5 4 0 1 1 5 6 1 1 0 1 0 1 2 3 3 2 1 0 1 1 1 0 1 1 1 1 1 0 1 2 2 2 2 2 2 3 2 2 2 3
3 2 5 5 6 6 2 2 5 4 1 2 2 1 2 3 2 2 1 1 1 0 1 1 1 1 1 2 2 1 2 2 2 2 3 2 3 3 3 3 3 3 4 4
3 3 6 6 3 3 4 4 4 3 4 3 1 3 2 3 3 2 2 1 1 2 3 4 4 3 3 2 2 2 2 3 3 4 4 4 4 4 4 4 4 4 4 4
2 5 3 6 5 1 3 2 2 2 2 2 2 2 2 1 2 2 1 2 3 4 5 5 5 4 3 3 4 4 4 5 6 5 5 5 6 5 5 6 6 6 5 5
3 6 5 9 10 8 8 7 4 4 4 3 2 1 1 1 1 1 1 3 5 6 6 6 5 5 5 5 6 6 6 7 7 6 6 6 6 6 7 7 7 6 6 6
5 5 4 2 4 2 6 10 9 7 4 2 1 1 2 3 3 4 4 6 6 6 5 5 5 6 6 7 7 7 8 8 8 7 7 7 8 8 8 8 7 7 7 6
6 4 3 1 6 10 10 10 10 8 4 2 1 3 1 3 4 5 5 6 5 5 5 6 6 6 7 7 7 8 8 8 8 8 8 9 9 8 8 8 8 7 7 7
5 3 4 4 8 12 12 11 8 6 5 3 3 2 3 4 4 5 7 6 5 6 7 8 8 8 8 8 8 8 8 9 8 8 9 9 8 8 8 8 7 7 7 7
2 3 4 3 1 5 8 8 7 5 5 4 2 4 6 6 7 7 7 6 7 9 9 9 9 8 9 9 9 9 9 8 8 8 9 8 8 8 8 8 7 7 7 7
3 2 2 2 6 4 1 2 5 4 4 3 1 5 6 7 8 7 7 7 9 10 10 10 9 9 9 8 8 8 8 7 8 8 8 8 8 8 8 7 7 7 6 6
3 4 4 3 2 2 2 6 5 2 2 2 4 7 8 7 6 6 8 8 10 10 10 10 9 10 9 9 8 8 7 8 8 8 8 8 8 8 7 7 8 7 6 6
7 7 6 4 2 1 3 7 5 3 2 4 6 7 8 8 8 8 8 9 9 10 9 9 9 9 9 9 8 8 8 8 9 9 8 8 8 8 8 8 8 7 6 7
6 6 5 3 2 1 4 5 5 5 7 8 6 7 7 7 8 10 10 9 9 10 10 10 10 9 10 10 9 9 9 10 9 9 8 8 8 8 8 7 6 6 6 6
3 3 2 3 3 4 5 4 3 5 6 6 6 6 7 9 10 9 9 10 11 11 11 10 10 11 11 10 10 10 11 10 9 9 9 8 8 8 8 5 5 5 5 5
3 6 5 5 4 5 1 1 3 3 4 5 6 8 8 8 8 9 9 10 10 11 11 11 12 13 12 10 10 12 12 10 10 9 9 8 8 7 6 6 5 5 4 4
1 3 4 2 0 1 1 3 3 3 4 5 6 7 7 8 9 9 10 10 11 11 12 12 13 13 14 13 12 11 12 10 10 10 9 7 7 7 6 4 4 4 4 4
0 3 3 0 3 3 5 5 4 5 6 6 7 6 7 8 8 9 10 11 12 12 12 12 13 14 15 14 13 13 12 10 9 9 8 7 6 6 5 5 4 5 5 5
0 4 4 4 5 3 5 5 4 5 6 6 7 8 8 7 9 10 11 11 11 13 13 14 15 15 15 14 14 13 11 9 8 8 7 5 4 4 4 3 4 5 5 7
Wind_Direction
313 100 242 245 219 218 247 269 285 290 310 36 52 60 45 56 81 96 99 103 96 86 73 68 81 92 96 84 59 66 64 38 116 120 126 131 173 191 188 178 165 165 165 160
350 254 241 242 261 264 272 321 321 317 341 44 59 52 43 45 49 57 74 81 87 82 73 58 59 63 75 92 103 105 154 193 198 171 157 164 172 202 196 191 182 174 166 171
220 250 264 275 293 336 344 2 334 325 352 24 66 31 34 42 49 48 47 53 65 80 75 59 58 60 71 81 100 138 168 157 356 79 88 77 53 37 36 346 258 222 184 192
291 310 349 341 320 8 307 305 354 13 38 346 46 40 355 24 41 40 38 38 40 45 52 56 59 57 55 54 59 56 53 49 36 34 60 87 101 135 245 240 254 262 232 227
318 336 347 325 294 312 258 316 18 11 63 24 17 97 313 14 33 33 38 41 31 33 46 57 60 63 62 59 57 56 52 44 37 38 48 57 52 2 314 325 318 301 289 269
295 303 287 268 294 322 16 30 22 36 57 13 305 122 311 346 16 53 45 40 34 35 40 58 65 69 68 67 64 62 58 42 38 43 42 41 36 14 359 351 339 323 307 296
331 325 314 305 355 350 37 60 19 357 3 272 308 105 241 326 89 98 99 74 41 20 20 61 66 72 80 80 79 77 76 54 35 40 38 32 26 21 6 339 333 334 328 315
287 303 299 320 258 249 275 131 150 215 244 273 18 107 218 121 96 99 106 121 109 40 342 76 127 118 119 118 109 93 82 57 20 33 9 356 8 2 319 310 314 309 292 287
193 270 295 300 297 156 327 269 177 154 267 35 314 119 191 120 84 93 105 119 141 299 350 345 339 91 144 149 153 142 123 62 323 316 306 311 320 308 295 295 292 286 286 292
134 288 312 325 17 12 115 153 66 70 58 322 308 236 227 193 190 147 152 183 172 55 325 294 279 256 217 190 187 163 167 206 248 266 266 269 268 267 270 279 289 290 292 297
91 84 321 351 5 318 355 24 77 103 150 150 279 293 325 179 182 178 207 211 232 260 263 262 251 239 235 237 240 248 254 257 261 258 255 264 267 268 270 269 268 268 273 282
49 101 326 300 296 23 39 8 106 124 298 135 142 273 347 162 173 168 213 255 262 264 264 264 267 273 280 280 274 267 263 261 258 254 255 259 263 264 263 260 261 262 267 270
62 80 22 348 346 7 27 15 33 107 83 60 81 281 349 1 351 313 289 296 295 297 301 306 311 306 293 282 275 270 265 261 259 255 252 257 260 257 256 254 255 257 259 266
92 82 128 201 271 358 45 39 40 70 74 62 94 154 355 343 337 330 322 312 310 315 322 326 311 294 284 278 273 270 268 263 259 254 249 251 252 250 249 250 252 251 249 252
78 53 357 62 90 83 68 53 54 62 76 96 104 119 4 331 331 325 322 320 330 330 320 304 287 277 275 274 272 268 266 264 258 251 246 245 245 245 246 247 248 248 248 250
68 53 24 47 98 87 66 46 41 43 42 59 82 69 321 316 329 326 321 316 311 300 293 287 283 280 275 271 267 265 264 262 257 252 251 250 248 246 245 246 246 247 247 248
54 63 43 334 281 65 36 16 33 44 33 66 50 303 306 321 322 309 304 297 292 293 291 287 282 272 268 265 262 263 261 262 259 257 258 255 248 245 247 249 246 239 239 237
119 78 95 21 38 57 212 17 42 98 86 57 347 299 301 295 289 285 291 293 296 296 293 288 280 276 273 271 272 272 272 270 266 264 262 259 254 248 243 243 243 239 234 231
106 111 73 65 63 132 346 -0 350 316 213 33 344 323 315 305 309 293 284 286 288 290 289 286 284 283 284 284 283 284 281 278 275 272 269 266 261 259 251 244 244 241 234 235
48 68 78 54 37 229 292 315 321 2 274 332 345 323 313 326 325 295 295 295 297 298 299 300 300 299 298 294 291 289 287 285 280 278 275 273 269 263 257 249 245 242 235 237
23 32 54 50 27 255 306 325 32 51 280 299 304 305 309 303 278 287 306 310 308 308 309 310 308 304 298 295 293 289 288 283 280 281 280 276 270 263 257 252 248 242 240 241
103 81 47 67 26 288 323 29 45 255 264 288 298 301 300 294 295 306 315 316 318 317 315 312 308 303 299 298 295 291 287 283 280 278 277 275 271 270 275 251 248 245 240 244
129 170 170 167 202 228 236 151 246 248 289 297 301 306 310 316 316 318 317 317 315 314 313 312 310 308 306 300 293 289 288 287 285 280 275 272 271 267 262 252 248 249 241 238
332 105 93 83 202 224 83 360 339 332 316 311 316 321 332 326 321 321 319 318 318 317 316 314 313 312 310 306 299 290 289 286 284 282 277 272 268 265 261 253 244 239 235 232
132 83 76 355 309 328 336 335 327 335 338 335 332 333 333 329 324 320 320 321 321 319 316 315 315 313 312 312 308 303 296 290 286 283 277 272 263 258 260 254 245 241 233 215
176 144 149 222 240 230 280 299 334 351 340 336 340 337 332 330 324 325 324 321 319 319 320 321 319 317 316 315 313 311 305 296 291 289 281 271 262 257 253 256 276 264 249 246